Simultaneous Nadir Overpasses (SNOs) Predictions

Prediction of SNOs between LANDSAT-8 and METOP-B Satellite Orbit:

Table of predicted SNOs for the next 14.0 days since TLE Epoch: 12/3/2022
Index Date (LANDSAT-8) Time (LANDSAT-8) Lat,Lon (LANDSAT-8) SZA (LANDSAT-8 ) Date (METOP-B) Time (METOP-B) Lat,Lon (METOP-B) SZA (METOP-B ) Distance(km) Time Diff (sec)
1 12/03/2022 23:42:18 81.10,-136.01 105.45 12/03/2022 23:41:20 81.10,-136.05 105.42 0.77 58
2 12/04/2022 00:31:44 -81.12, 31.90 74.51 12/04/2022 00:31:59 -81.13, 31.98 74.49 1.59 15
3 12/06/2022 19:16:31 81.12, -69.27 105.81 12/06/2022 19:15:42 81.12, -69.15 105.81 2.06 49
4 12/06/2022 20:05:57 -81.14, 98.66 74.14 12/06/2022 20:06:22 -81.13, 98.51 74.15 2.75 25
5 12/09/2022 14:50:46 81.11, -3.01 106.05 12/09/2022 14:50:07 81.11, -3.05 106.03 0.85 39
6 12/09/2022 15:40:12 -81.13, 164.96 73.90 12/09/2022 15:40:46 -81.13, 165.00 73.88 0.79 34
7 12/12/2022 10:25:00 81.12, 63.53 106.27 12/12/2022 10:24:31 81.11, 63.38 106.24 2.67 29
8 12/12/2022 11:14:26 -81.14,-128.48 73.68 12/12/2022 11:15:10 -81.13,-128.56 73.67 1.35 44
9 12/15/2022 05:59:13 81.12, 129.97 106.41 12/15/2022 05:58:53 81.12, 130.14 106.43 3.16 20



Historial Predications of SNOs between LANDSAT-8 and METOP-B
